ARIANE 5 R/B, 32254

Orbit data source: Space-Track

ARIANE 5 R/B, 32254 is space debris in HEO originally from a launch on Fri, 05 Oct 2007 UTC launched from the French Guiana (FRGUI). Debris objects in space refer to the collection of defunct objects orbiting the Earth. Examples of debris include non-operational satellites, rocket bodies, and fragments generated from explosions, collisions, or faulty payload assembly.

Loading next visibility...
Identifier
32254, 2007-044C
Orbit
HEO
Last TLE update
2 days ago
Origin
Manufacturer
EADS/Bremen
Mission
Spacecraft
Bus & Motor
EPS+, AESTUS
Mass
3,057 kg wet, 3,057 kg dry
Launch date (UTC)
2007-10-05 (18 years ago)
Launch vehicle
Unknown
Launch site
French Guiana (FRGUI)
Object type
Payload
Rocket body
Debris
Shape & HBR
Cone + Cyl, 5.46 m
Radar Cross Section
28.860 m², Large (>1 m²)

Expand to show TLE details & history

TLE from 2 days ago
0 ARIANE 5 R/B
1 32254U 07044C   25127.52744584  .00000476  00000-0  47864-3 0  9996
2 32254   4.0140 172.7612 7082073  94.5130 342.1530  2.48891147158198
Epoch: 2025-05-07T12:39Z
Definitive object data (Epoch: 2025-05-07T12:39:31.32Z)
Latitude
-0.00009°
Longitude
117.82861°
Altitude
5,662.379 km
Speed
6.991 km/s
True Right ascension
11h 33m 16s
True Declination
0° 00' 00"
Sunlit
Object was in daylight at TLE epoch
Visualization TLE readout
Latitude
-3.89833°
Longitude
13.10122°
Altitude
28,167.977 km
Speed
2.397 km/s
Apparent Right ascension
04h 20m 47s
Apparent Declination
-9° 22' 35"
Sunlit
Object is in daylight
Visualization observer readout
Local Sidereal Time
14:42:17
Azimuth
317.619° NNW
Elevation
-52.415°
Doppler factor
1
Orbital elements
Apogee altitude
32,919.977 km
Perigee altitude
334.692 km
Semi-major axis
23,005.471 km
Eccentricity
0.7082073
Inclination
4.014°
RAAN
172.7612°
Arg. of periapsis
94.513°
True anomaly
265.73591°
Mean anomaly
342.153°
Eccentric anomaly
311.99657°
Mean motion
0.62201 °/min
BSTAR
0.00047864
Orbital period
578.77 mins
Loading maneuver chart data...
Loading SW <> Apogee altitude chart data...
Loading historical data...
Loading historical data...
Loading historical data...
Loading historical data...
Loading historical data...
Loading historical data...
Loading historical data...
Other satellites on launch #44 in the year 2007 (2007-10-05 UTC)

ARIANE 5 R/B Visibility forecast

Observer location: undefined°, undefined°

Span
Click to sort rows by Start time (UTC) header in descending order
Start Az.
Max El. time (UTC)
Max El. Az.
Max El.
End time (UTC)
End Az.
298 mins2025-05-09 16:57:25.797Z113.444° SE2025-05-09 20:23:25.797Z127.952° SE20.227°2025-05-09 21:55:25.797Z120.445° SE
|